Location: New Frontier Mobile Home Park
(32.8448°N, 116.9675°W)
Time: 22:28:35
(UTC+00:00)

Cosmos 1241 Rocket - Pass Details

Date: 14 July 2020
Orbit: 935 x 1012 km, 65.8° (Epoch: 05 August)

Event Time Altitude Azimuth Distance (km) Brightness Sun altitude
Rises 10:11:01 0° 331° (NNW) 3,698 7.9 -26.5°
Reaches altitude 10° 10:13:35 10° 331° (NNW) 2,757 7.1 -26.2°
Maximum altitude 10:20:04 82° 245° (WSW) 1,015 4.4 -25.4°
Enters shadow 10:23:08 34° 161° (SSE) 1,585 5.3 -25.0°
